This demonstration page uses our WeatherBlox Daily Observations layout. Learn more.

Left ArrowRight Arrow

31.84235, -102.49876

Hourly Observations for June 11, 2022

Temp ( °F °C ) Dew Point ( °F °C ) Humidity (%) Winds ( mph kmh ) Pressure ( in mb ) Visibility ( mi km ) Precip ( " mm )
12:53 am 00:53 Clear 87 30.6 51 10.6 29 29 S 14 22 29.77 1008 10 16 0.00 0.00
1:53 am 01:53 Clear 85 29.4 54 12.2 35 35 S 13 20 29.76 1008 10 16 0.00 0.00
2:53 am 02:53 Clear 82 27.8 54 12.2 38 38 SSW 10 17 29.75 1008 10 16 0.00 0.00
3:53 am 03:53 Clear 79 26.1 55 12.8 44 44 SSW 8 13 29.75 1008 10 16 0.00 0.00
4:53 am 04:53 Clear 77 25 55 12.8 47 47 SSW 8 13 29.75 1007 10 16 0.00 0.00
5:53 am 05:53 Clear 76 24.4 55 12.8 48 48 SSW 5 7 29.76 1008 10 16 0.00 0.00
6:53 am 06:53 Sunny 75 23.9 55 12.8 50 50 SSW 3 6 29.77 1008 10 16 0.00 0.00
7:53 am 07:53 Sunny 79 26.1 57 13.9 47 47 S 7 11 29.78 1008 10 16 0.00 0.00
8:53 am 08:53 Sunny 83 28.3 59 15 44 44 S 16 26 29.79 1009 10 16 0.00 0.00
9:53 am 09:53 Sunny 87 30.6 59 15 39 39 SSW 18 30 29.79 1009 10 16 0.00 0.00
10:53 am 10:53 Sunny 92 33.3 60 15.6 34 34 S 15 24 29.78 1009 10 16 0.00 0.00
11:53 am 11:53 Sunny 95 35 55 12.8 26 26 S 14 22 29.78 1008 10 16 0.00 0.00
12:53 pm 12:53 Sunny 99 37.2 52 11.1 21 21 S 12 19 29.75 1008 10 16 0.00 0.00
1:53 pm 13:53 Sunny 102 38.9 46 7.8 15 15 S 10 17 29.73 1007 10 16 0.00 0.00
2:53 pm 14:53 Sunny 102 38.9 48 8.9 16 16 S 9 15 29.71 1006 10 16 0.00 0.00
3:53 pm 15:53 Sunny 105 40.6 48 8.9 15 15 SSE 9 15 29.69 1005 10 16 0.00 0.00
4:53 pm 16:53 Sunny 106 41.1 45 7.2 13 13 S 12 19 29.67 1005 10 16 0.00 0.00
5:53 pm 17:53 Sunny 106 41.1 45 7.2 13 13 WSW 14 22 29.66 1004 10 16 0.00 0.00
6:53 pm 18:53 Sunny 104 40 45 7.2 13 13 S 13 20 29.64 1004 10 16 0.00 0.00
7:53 pm 19:53 Sunny 102 38.9 45 7.2 14 14 S 12 19 29.65 1004 10 16 0.00 0.00
8:53 pm 20:53 Sunny 99 37.2 45 7.2 16 16 S 12 19 29.66 1004 10 16 0.00 0.00
9:53 pm 21:53 Clear 96 35.6 45 7.2 17 17 S 14 22 29.67 1005 10 16 0.00 0.00
10:53 pm 22:53 Clear 94 34.4 45 7.2 18 18 S 14 22 29.70 1006 10 16 0.00 0.00
11:53 pm 23:53 Clear 91 32.8 47 8.3 22 22 S 14 22 29.70 1006 10 16 0.00 0.00

Powered by AerisWeather